Flag for Brazil Weather past 2 weeks in Santarém, Para, Brazil

Now
88 °F

Passing clouds.


Feels Like: 98 °F
Forecast: 73 / 88 °F
Wind: 14 mph from East

Location: Santarem-Aeroporto

Current Time: Jul 22, 2014 at 3:23:53 PM

Latest Report: Jul 22, 2014 at 2:00 PM


Visibility: N/A

Pressure: 29.92 "Hg

Humidity: 66%

Dew point: 75 °F

Location of SantarémLocation

Historic Weather in Santarém — Graph

°F

Santarém temperature yesterday

Maximum temperature yesterday: 88 °F (at 2:00 PM)
Minimum temperature yesterday: 73 °F (at 12:00 AM)
Average temperature yesterday: 80 °F

Past Weeks' High & Low Weather Summary

 TemperatureHumidityPressure
High88 °F (Jul 15, 4:00 PM)100% (Jul 7, 10:00 PM)30.04 "Hg (Jul 7, 10:00 PM)
Low72 °F (Jul 14, 6:00 AM)62% (Jul 19, 2:00 PM)29.80 "Hg (Jul 11, 5:00 PM)
Average80 °F86%29.94 "Hg
* Reported Jul 7 2:00 PM — Jul 22 2:00 PM, Santarém, Weather by CustomWeather, © 2014

Note: Actual official high and low records may vary slightly from our data, if they occured in-between our weather recording intervals... More about our weather records

Advertising

Santarém weather history for previous 24 hours

 ConditionsComfort  
Time TempWeatherWind HumidityBarometerVisibility
2:00 PM
Jul 22
88 °FPassing clouds.14 mph66%29.92 "HgN/A
1:00 PM86 °FScattered clouds.12 mph70%29.95 "HgN/A
12:00 PM86 °FScattered clouds.12 mph70%29.98 "HgN/A
11:00 AM86 °FScattered clouds.10 mph70%29.98 "HgN/A
10:00 AM82 °FScattered clouds.9 mph79%29.98 "HgN/A
9:00 AM82 °FPassing clouds.17 mph79%29.98 "HgN/A
8:00 AM81 °FPassing clouds.14 mph79%29.95 "HgN/A
7:00 AM79 °FScattered clouds.13 mph84%29.95 "HgN/A
6:00 AM79 °FPassing clouds.13 mph84%29.92 "HgN/A
5:00 AM79 °FPassing clouds.9 mph89%29.92 "HgN/A
4:00 AM81 °FPassing clouds.12 mph84%29.89 "HgN/A
3:00 AM79 °FPassing clouds.9 mph89%29.89 "HgN/A
2:00 AM75 °FClear.No wind100%29.92 "Hg10 mi
1:00 AM75 °FClear.No wind94%29.92 "Hg10 mi
12:00 AM75 °FClear.No wind94%29.92 "Hg10 mi
11:00 PM
Jul 21
75 °FClear.No wind100%29.92 "Hg10 mi
10:00 PM75 °FClear.No wind100%29.92 "Hg10 mi
9:00 PM77 °FPassing clouds.No wind94%29.89 "HgN/A
8:00 PM81 °FPassing clouds.5 mph84%29.86 "HgN/A
7:00 PM81 °FPassing clouds.6 mph84%29.86 "HgN/A
6:00 PM86 °FPassing clouds.8 mph66%29.86 "HgN/A
5:00 PM88 °FPassing clouds.10 mph62%29.83 "HgN/A
4:00 PM88 °FPassing clouds.12 mph66%29.86 "HgN/A
3:00 PM88 °FPassing clouds.14 mph62%29.89 "HgN/A
Weather by CustomWeather, © 2014

See weather overviewHow to use our weather pages